Station Historical Data
Daily Summary for September 23, 2017 Units:  English    Metric   Both
« Previous Day
Next Day »
Daily Weekly Monthly Yearly Custom
  High: Low: Average:
Temperature: 84.4 °F 57.3 °F 70.6 °F
Dew Point: 67.9 °F 53.4 °F 59.1 °F
Humidity: 88% 46% 69%
Wind Speed: 7.0mph 0.0mph 1.2mph
Wind Gust: 9.0mph - -
Wind- - SW
Pressure: 30.14 in 30.05 in -
Precipitation: 0.00 in    
Historical Graphs
 
 
Tabular Data for September 23, 2017
Time Temperature Dew Point Pressure Wind Wind Speed Wind Gust Humidity Rainfall Rate (Hourly)
00:04 64.0 °F 56.6 °F 30.08 in Calm     77% 0.00 in
00:09 64.0 °F 56.6 °F 30.08 in Calm     77% 0.00 in
00:14 63.9 °F 56.9 °F 30.08 in Calm     78% 0.00 in
00:19 63.8 °F 56.8 °F 30.08 in Calm     78% 0.00 in
00:24 63.6 °F 56.6 °F 30.08 in Calm     78% 0.00 in
00:29 63.4 °F 56.8 °F 30.08 in Calm     79% 0.00 in
00:34 63.2 °F 56.6 °F 30.08 in Calm     79% 0.00 in
00:39 63.1 °F 56.5 °F 30.08 in Calm     79% 0.00 in
00:44 63.0 °F 56.7 °F 30.08 in Calm     80% 0.00 in
00:49 62.9 °F 56.6 °F 30.08 in Calm     80% 0.00 in
00:54 62.7 °F 56.4 °F 30.08 in Calm     80% 0.00 in
00:59 62.5 °F 56.6 °F 30.07 in Calm     81% 0.00 in
01:04 62.3 °F 56.4 °F 30.08 in Calm     81% 0.00 in
01:09 62.3 °F 56.4 °F 30.08 in Calm     81% 0.00 in
01:14 62.0 °F 56.1 °F 30.08 in Calm     81% 0.00 in
01:19 61.9 °F 56.3 °F 30.08 in Calm     82% 0.00 in
01:24 61.8 °F 56.2 °F 30.07 in Calm     82% 0.00 in
01:29 61.8 °F 56.2 °F 30.07 in Calm     82% 0.00 in
01:34 61.6 °F 56.0 °F 30.07 in Calm     82% 0.00 in
01:39 61.6 °F 56.0 °F 30.06 in Calm     82% 0.00 in
01:44 61.5 °F 56.0 °F 30.06 in Calm     82% 0.00 in
01:49 61.4 °F 55.9 °F 30.06 in Calm     82% 0.00 in
01:54 61.3 °F 56.1 °F 30.06 in Calm     83% 0.00 in
01:59 61.2 °F 56.0 °F 30.07 in Calm     83% 0.00 in
02:04 60.8 °F 55.6 °F 30.07 in Calm     83% 0.00 in
02:09 60.5 °F 55.6 °F 30.07 in Calm     84% 0.00 in
02:14 60.3 °F 55.4 °F 30.07 in Calm     84% 0.00 in
02:19 60.2 °F 55.3 °F 30.07 in Calm     84% 0.00 in
02:24 60.0 °F 55.5 °F 30.07 in Calm     85% 0.00 in
02:29 59.9 °F 55.4 °F 30.07 in Calm     85% 0.00 in
02:34 59.8 °F 55.3 °F 30.07 in Calm     85% 0.00 in
02:39 59.7 °F 55.2 °F 30.06 in Calm     85% 0.00 in
02:44 59.7 °F 55.5 °F 30.06 in Calm     86% 0.00 in
02:49 59.5 °F 55.3 °F 30.06 in Calm     86% 0.00 in
02:54 59.4 °F 55.2 °F 30.06 in Calm     86% 0.00 in
02:59 59.4 °F 55.2 °F 30.06 in Calm     86% 0.00 in
03:04 59.3 °F 55.1 °F 30.06 in Calm     86% 0.00 in
03:09 59.2 °F 55.0 °F 30.06 in Calm     86% 0.00 in
03:14 59.2 °F 55.0 °F 30.06 in Calm     86% 0.00 in
03:19 59.0 °F 55.1 °F 30.07 in Calm     87% 0.00 in
03:24 59.1 °F 55.2 °F 30.06 in Calm     87% 0.00 in
03:29 59.2 °F 55.3 °F 30.06 in Calm     87% 0.00 in
03:34 59.4 °F 55.5 °F 30.06 in Calm     87% 0.00 in
03:39 59.5 °F 55.6 °F 30.06 in Calm     87% 0.00 in
03:44 59.5 °F 55.6 °F 30.06 in Calm     87% 0.00 in
03:54 59.5 °F 55.3 °F 30.06 in Calm     86% 0.00 in
03:59 59.6 °F 55.4 °F 30.05 in Calm     86% 0.00 in
04:04 59.6 °F 55.4 °F 30.05 in Calm     86% 0.00 in
04:09 59.6 °F 55.4 °F 30.05 in Calm     86% 0.00 in
04:14 59.6 °F 55.4 °F 30.05 in Calm     86% 0.00 in
04:19 59.6 °F 55.1 °F 30.05 in Calm     85% 0.00 in
04:24 59.6 °F 55.1 °F 30.05 in Calm     85% 0.00 in
04:29 59.5 °F 55.0 °F 30.05 in Calm     85% 0.00 in
04:34 59.3 °F 54.8 °F 30.05 in Calm     85% 0.00 in
04:39 59.1 °F 54.6 °F 30.05 in Calm     85% 0.00 in
04:44 58.9 °F 54.4 °F 30.06 in Calm     85% 0.00 in
04:49 58.8 °F 54.6 °F 30.05 in Calm     86% 0.00 in
04:54 58.6 °F 54.4 °F 30.06 in Calm     86% 0.00 in
04:59 58.5 °F 54.3 °F 30.06 in Calm     86% 0.00 in
05:04 58.3 °F 53.8 °F 30.06 in Calm     85% 0.00 in
05:09 58.2 °F 54.0 °F 30.06 in Calm     86% 0.00 in
05:14 58.2 °F 54.0 °F 30.06 in Calm     86% 0.00 in
05:19 58.2 °F 54.0 °F 30.06 in Calm     86% 0.00 in
05:24 58.2 °F 54.0 °F 30.07 in Calm     86% 0.00 in
05:29 58.2 °F 54.0 °F 30.07 in Calm     86% 0.00 in
05:34 58.1 °F 53.9 °F 30.07 in Calm     86% 0.00 in
05:39 58.0 °F 53.8 °F 30.07 in Calm     86% 0.00 in
05:44 57.9 °F 53.7 °F 30.07 in Calm     86% 0.00 in
05:49 57.7 °F 53.5 °F 30.07 in Calm     86% 0.00 in
05:54 57.6 °F 53.4 °F 30.07 in Calm     86% 0.00 in
05:59 57.6 °F 53.8 °F 30.08 in Calm     87% 0.00 in
06:04 57.5 °F 53.7 °F 30.08 in Calm     87% 0.00 in
06:09 57.4 °F 53.6 °F 30.08 in Calm     87% 0.00 in
06:14 57.7 °F 54.2 °F 30.08 in Calm     88% 0.00 in
06:19 57.9 °F 54.1 °F 30.08 in Calm     87% 0.00 in
06:24 57.9 °F 54.1 °F 30.09 in Calm     87% 0.00 in
06:29 57.9 °F 54.1 °F 30.09 in Calm     87% 0.00 in
06:34 57.9 °F 53.7 °F 30.09 in Calm     86% 0.00 in
06:39 57.9 °F 53.7 °F 30.10 in Calm     86% 0.00 in
06:44 57.8 °F 53.6 °F 30.09 in Calm     86% 0.00 in
06:49 57.6 °F 53.8 °F 30.10 in Calm     87% 0.00 in
06:54 57.5 °F 53.7 °F 30.10 in Calm     87% 0.00 in
06:59 57.3 °F 53.5 °F 30.10 in Calm     87% 0.00 in
07:04 57.3 °F 53.5 °F 30.10 in Calm     87% 0.00 in
07:09 57.4 °F 53.9 °F 30.10 in Calm     88% 0.00 in
07:14 57.6 °F 54.1 °F 30.11 in Calm     88% 0.00 in
07:19 57.9 °F 54.1 °F 30.11 in Calm     87% 0.00 in
07:24 58.1 °F 54.2 °F 30.11 in Calm     87% 0.00 in
07:29 58.4 °F 54.5 °F 30.11 in Calm     87% 0.00 in
07:34 58.9 °F 54.7 °F 30.11 in Calm     86% 0.00 in
07:39 59.1 °F 54.6 °F 30.11 in Calm     85% 0.00 in
07:44 59.4 °F 54.6 °F 30.11 in Calm     84% 0.00 in
07:49 59.6 °F 54.8 °F 30.12 in Calm     84% 0.00 in
07:54 59.9 °F 54.7 °F 30.12 in Calm     83% 0.00 in
07:59 60.3 °F 54.8 °F 30.12 in Calm     82% 0.00 in
08:04 60.6 °F 54.7 °F 30.12 in Calm     81% 0.00 in
08:09 61.0 °F 55.1 °F 30.13 in Calm     81% 0.00 in
08:14 61.4 °F 55.2 °F 30.13 in Calm     80% 0.00 in
08:19 61.8 °F 55.2 °F 30.13 in Calm     79% 0.00 in
08:24 62.1 °F 55.2 °F 30.13 in Calm     78% 0.00 in
08:29 62.8 °F 55.1 °F 30.13 in Calm     76% 0.00 in
08:34 63.4 °F 55.7 °F 30.13 in Calm     76% 0.00 in
08:39 64.2 °F 56.1 °F 30.13 in Calm     75% 0.00 in
08:44 64.7 °F 56.2 °F 30.13 in Calm     74% 0.00 in
08:49 65.3 °F 55.7 °F 30.13 in Calm     71% 0.00 in
08:54 65.8 °F 56.1 °F 30.13 in Calm     71% 0.00 in
08:59 66.3 °F 56.2 °F 30.13 in Calm     70% 0.00 in
09:04 67.0 °F 56.9 °F 30.13 in Calm     70% 0.00 in
09:09 67.4 °F 56.5 °F 30.14 in SE 1.0 mph 3.0 mph 68% 0.00 in
09:14 68.1 °F 56.7 °F 30.14 in Calm   4.0 mph 67% 0.00 in
09:19 68.1 °F 55.9 °F 30.14 in Calm   3.0 mph 65% 0.00 in
09:24 68.4 °F 56.6 °F 30.14 in Calm     66% 0.00 in
09:29 69.0 °F 56.7 °F 30.14 in Calm     65% 0.00 in
09:34 69.7 °F 57.0 °F 30.14 in Calm     64% 0.00 in
09:39 69.8 °F 56.6 °F 30.14 in Calm   5.0 mph 63% 0.00 in
09:44 70.7 °F 57.0 °F 30.14 in SW 3.0 mph 4.0 mph 62% 0.00 in
09:49 71.2 °F 57.5 °F 30.14 in SW 1.0 mph 3.0 mph 62% 0.00 in
09:54 71.8 °F 57.6 °F 30.14 in SW 1.0 mph 3.0 mph 61% 0.00 in
09:59 72.4 °F 58.2 °F 30.14 in SW 1.0 mph 3.0 mph 61% 0.00 in
10:04 73.0 °F 57.8 °F 30.14 in SW 1.0 mph 3.0 mph 59% 0.00 in
10:09 73.2 °F 58.0 °F 30.14 in Calm     59% 0.00 in
10:14 73.7 °F 58.5 °F 30.14 in Calm     59% 0.00 in
10:19 74.3 °F 58.6 °F 30.14 in Calm   4.0 mph 58% 0.00 in
10:24 74.7 °F 58.5 °F 30.14 in SSW 2.0 mph 4.0 mph 57% 0.00 in
10:29 75.5 °F 59.2 °F 30.14 in SSE 1.0 mph 4.0 mph 57% 0.00 in
10:34 75.5 °F 58.2 °F 30.14 in South 1.0 mph 4.0 mph 55% 0.00 in
10:39 75.6 °F 58.8 °F 30.14 in SSW 3.0 mph 6.0 mph 56% 0.00 in
10:44 76.4 °F 59.0 °F 30.14 in SSE 4.0 mph 4.0 mph 55% 0.00 in
10:49 77.0 °F 59.1 °F 30.14 in SSW 2.0 mph 5.0 mph 54% 0.00 in
10:54 77.2 °F 58.7 °F 30.14 in SSW 2.0 mph 5.0 mph 53% 0.00 in
10:59 77.3 °F 58.8 °F 30.14 in SW 3.0 mph 7.0 mph 53% 0.00 in
11:04 77.7 °F 59.2 °F 30.14 in WSW 3.0 mph 6.0 mph 53% 0.00 in
11:09 78.7 °F 60.7 °F 30.13 in SSW 3.0 mph 6.0 mph 54% 0.00 in
11:14 79.1 °F 60.0 °F 30.13 in SW 2.0 mph 6.0 mph 52% 0.00 in
11:19 79.4 °F 60.2 °F 30.13 in SW 2.0 mph 6.0 mph 52% 0.00 in
11:24 79.7 °F 59.4 °F 30.13 in SW 3.0 mph 5.0 mph 50% 0.00 in
11:29 79.6 °F 61.0 °F 30.12 in SSW 2.0 mph 6.0 mph 53% 0.00 in
11:34 79.9 °F 59.6 °F 30.12 in SW 4.0 mph 6.0 mph 50% 0.00 in
11:39 80.5 °F 60.7 °F 30.12 in South 5.0 mph 6.0 mph 51% 0.00 in
11:44 80.6 °F 60.2 °F 30.12 in Calm   5.0 mph 50% 0.00 in
11:49 81.0 °F 60.6 °F 30.12 in SW 3.0 mph 7.0 mph 50% 0.00 in
11:54 81.2 °F 60.8 °F 30.12 in SW 2.0 mph 7.0 mph 50% 0.00 in
11:59 81.4 °F 63.2 °F 30.12 in WSW 3.0 mph 6.0 mph 54% 0.00 in
12:04 82.3 °F 60.1 °F 30.13 in West 2.0 mph 6.0 mph 47% 0.00 in
12:09 82.1 °F 61.6 °F 30.13 in West 1.0 mph 5.0 mph 50% 0.00 in
12:14 82.5 °F 60.2 °F 30.13 in WSW 6.0 mph 6.0 mph 47% 0.00 in
12:19 81.7 °F 60.1 °F 30.13 in SW 2.0 mph 7.0 mph 48% 0.00 in
12:24 82.3 °F 59.4 °F 30.13 in SW 3.0 mph 7.0 mph 46% 0.00 in
12:29 82.0 °F 61.0 °F 30.12 in WSW 2.0 mph 7.0 mph 49% 0.00 in
12:34 82.3 °F 61.8 °F 30.13 in WSW 3.0 mph 6.0 mph 50% 0.00 in
12:39 82.3 °F 62.4 °F 30.13 in West 3.0 mph 5.0 mph 51% 0.00 in
12:44 82.9 °F 64.5 °F 30.13 in West 2.0 mph 4.0 mph 54% 0.00 in
12:49 83.0 °F 61.9 °F 30.13 in WSW 4.0 mph 7.0 mph 49% 0.00 in
12:54 82.5 °F 63.6 °F 30.12 in West 3.0 mph 7.0 mph 53% 0.00 in
12:59 82.7 °F 62.7 °F 30.12 in West 2.0 mph 6.0 mph 51% 0.00 in
13:04 82.8 °F 63.4 °F 30.12 in WNW 1.0 mph 6.0 mph 52% 0.00 in
13:09 83.4 °F 62.8 °F 30.12 in SW 5.0 mph 7.0 mph 50% 0.00 in
13:14 83.5 °F 65.1 °F 30.12 in WNW 3.0 mph 6.0 mph 54% 0.00 in
13:19 83.5 °F 62.9 °F 30.12 in West 3.0 mph 7.0 mph 50% 0.00 in
13:24 84.3 °F 63.6 °F 30.12 in WSW 3.0 mph 7.0 mph 50% 0.00 in
13:29 84.1 °F 65.1 °F 30.12 in WSW 3.0 mph 8.0 mph 53% 0.00 in
13:34 84.0 °F 65.6 °F 30.12 in WSW 3.0 mph 8.0 mph 54% 0.00 in
13:39 83.8 °F 65.4 °F 30.12 in SW 4.0 mph 7.0 mph 54% 0.00 in
13:44 83.2 °F 64.8 °F 30.11 in WSW 2.0 mph 6.0 mph 54% 0.00 in
13:54 83.6 °F 65.7 °F 30.11 in SW 3.0 mph 8.0 mph 55% 0.00 in
13:59 83.9 °F 66.5 °F 30.12 in SW 3.0 mph 7.0 mph 56% 0.00 in
14:05 83.8 °F 67.9 °F 30.12 in SW 1.0 mph 6.0 mph 59% 0.00 in
14:14 83.7 °F 66.8 °F 30.12 in SW 7.0 mph 9.0 mph 57% 0.00 in
14:19 83.6 °F 65.7 °F 30.11 in WSW 4.0 mph 9.0 mph 55% 0.00 in
14:24 84.2 °F 66.3 °F 30.11 in WSW 4.0 mph 7.0 mph 55% 0.00 in
14:29 83.9 °F 66.5 °F 30.11 in SW 4.0 mph 7.0 mph 56% 0.00 in
14:34 83.6 °F 65.7 °F 30.11 in SW 2.0 mph 8.0 mph 55% 0.00 in
14:39 83.9 °F 66.0 °F 30.11 in SW 4.0 mph 7.0 mph 55% 0.00 in
14:44 83.8 °F 65.9 °F 30.10 in SSW 1.0 mph 7.0 mph 55% 0.00 in
14:49 83.8 °F 65.9 °F 30.10 in SW 4.0 mph 7.0 mph 55% 0.00 in
14:54 84.1 °F 65.7 °F 30.10 in SW 4.0 mph 8.0 mph 54% 0.00 in
14:59 83.7 °F 64.8 °F 30.10 in WSW 4.0 mph 8.0 mph 53% 0.00 in
15:04 83.9 °F 65.5 °F 30.10 in WSW 4.0 mph 7.0 mph 54% 0.00 in
15:09 84.4 °F 64.9 °F 30.10 in SSW 4.0 mph 8.0 mph 52% 0.00 in
15:14 84.3 °F 64.8 °F 30.10 in SSW 1.0 mph 9.0 mph 52% 0.00 in
15:19 84.4 °F 64.9 °F 30.10 in SW 4.0 mph 9.0 mph 52% 0.00 in
15:24 84.1 °F 64.6 °F 30.10 in SW 5.0 mph 9.0 mph 52% 0.00 in
15:29 83.6 °F 63.6 °F 30.09 in SW 7.0 mph 7.0 mph 51% 0.00 in
15:34 83.6 °F 65.2 °F 30.09 in South 2.0 mph 7.0 mph 54% 0.00 in
15:39 83.8 °F 64.8 °F 30.09 in SW 4.0 mph 7.0 mph 53% 0.00 in
15:44 84.1 °F 64.6 °F 30.09 in SW 6.0 mph 7.0 mph 52% 0.00 in
15:49 83.8 °F 64.3 °F 30.09 in SW 4.0 mph 7.0 mph 52% 0.00 in
15:54 83.9 °F 63.8 °F 30.09 in SSW 3.0 mph 5.0 mph 51% 0.00 in
15:59 83.4 °F 63.4 °F 30.09 in West 4.0 mph 6.0 mph 51% 0.00 in
16:04 83.0 °F 63.0 °F 30.08 in SW 3.0 mph 9.0 mph 51% 0.00 in
16:09 83.0 °F 63.6 °F 30.09 in South 5.0 mph 9.0 mph 52% 0.00 in
16:14 83.0 °F 63.6 °F 30.08 in WSW 3.0 mph 7.0 mph 52% 0.00 in
16:19 82.9 °F 64.0 °F 30.08 in WSW 4.0 mph 7.0 mph 53% 0.00 in
16:24 82.5 °F 63.1 °F 30.08 in WSW 4.0 mph 8.0 mph 52% 0.00 in
16:29 82.2 °F 62.8 °F 30.08 in WSW 4.0 mph 9.0 mph 52% 0.00 in
16:34 82.0 °F 62.6 °F 30.08 in WSW 4.0 mph 9.0 mph 52% 0.00 in
16:39 82.0 °F 62.6 °F 30.08 in WSW 4.0 mph 8.0 mph 52% 0.00 in
16:44 81.9 °F 63.1 °F 30.08 in WSW 4.0 mph 7.0 mph 53% 0.00 in
16:49 82.0 °F 62.1 °F 30.08 in WSW 3.0 mph 7.0 mph 51% 0.00 in
16:54 81.7 °F 61.8 °F 30.07 in WSW 4.0 mph 8.0 mph 51% 0.00 in
16:59 81.7 °F 62.4 °F 30.07 in WSW 2.0 mph 6.0 mph 52% 0.00 in
17:04 81.9 °F 61.4 °F 30.07 in WSW 1.0 mph 8.0 mph 50% 0.00 in
17:09 81.8 °F 62.5 °F 30.07 in West 3.0 mph 5.0 mph 52% 0.00 in
17:14 81.8 °F 62.5 °F 30.07 in SW 4.0 mph 5.0 mph 52% 0.00 in
17:19 81.8 °F 61.9 °F 30.08 in WSW 3.0 mph 5.0 mph 51% 0.00 in
17:24 81.4 °F 62.1 °F 30.08 in SW 3.0 mph 6.0 mph 52% 0.00 in
17:29 81.1 °F 60.7 °F 30.08 in WSW 3.0 mph 6.0 mph 50% 0.00 in
17:34 80.7 °F 60.9 °F 30.08 in WSW 3.0 mph 6.0 mph 51% 0.00 in
17:39 80.4 °F 61.2 °F 30.08 in West 3.0 mph 6.0 mph 52% 0.00 in
17:44 79.9 °F 60.7 °F 30.08 in SW 4.0 mph 6.0 mph 52% 0.00 in
17:49 79.7 °F 61.1 °F 30.08 in West 5.0 mph 6.0 mph 53% 0.00 in
17:54 79.4 °F 60.8 °F 30.08 in WSW 3.0 mph 6.0 mph 53% 0.00 in
17:59 79.2 °F 59.5 °F 30.08 in WSW 3.0 mph 6.0 mph 51% 0.00 in
18:04 78.9 °F 60.3 °F 30.08 in SW 3.0 mph 7.0 mph 53% 0.00 in
18:09 78.7 °F 60.1 °F 30.08 in WSW 3.0 mph 5.0 mph 53% 0.00 in
18:14 78.5 °F 60.5 °F 30.08 in SW 4.0 mph 7.0 mph 54% 0.00 in
18:19 78.4 °F 60.4 °F 30.08 in SW 3.0 mph 7.0 mph 54% 0.00 in
18:24 78.3 °F 59.8 °F 30.08 in WSW 3.0 mph 7.0 mph 53% 0.00 in
18:29 78.1 °F 59.6 °F 30.08 in WSW 3.0 mph 6.0 mph 53% 0.00 in
18:34 78.0 °F 59.5 °F 30.08 in WSW 3.0 mph 5.0 mph 53% 0.00 in
18:39 77.7 °F 59.2 °F 30.08 in WSW 1.0 mph 7.0 mph 53% 0.00 in
18:44 77.5 °F 59.0 °F 30.08 in WSW 2.0 mph 5.0 mph 53% 0.00 in
18:49 77.3 °F 59.9 °F 30.08 in Calm   3.0 mph 55% 0.00 in
18:54 76.8 °F 60.4 °F 30.08 in Calm   3.0 mph 57% 0.00 in
18:59 76.4 °F 60.5 °F 30.08 in WSW 1.0 mph 3.0 mph 58% 0.00 in
19:04 76.1 °F 59.8 °F 30.08 in WSW 2.0 mph 5.0 mph 57% 0.00 in
19:09 75.9 °F 59.6 °F 30.08 in WSW 2.0 mph 5.0 mph 57% 0.00 in
19:14 75.8 °F 60.0 °F 30.08 in SW 2.0 mph 5.0 mph 58% 0.00 in
19:19 75.6 °F 59.8 °F 30.08 in WSW 1.0 mph 5.0 mph 58% 0.00 in
19:24 75.4 °F 60.5 °F 30.08 in WSW 1.0 mph 5.0 mph 60% 0.00 in
19:29 75.0 °F 60.2 °F 30.08 in WSW 2.0 mph 3.0 mph 60% 0.00 in
19:34 74.7 °F 60.4 °F 30.08 in Calm   2.0 mph 61% 0.00 in
19:39 74.4 °F 60.5 °F 30.08 in WSW 1.0 mph 1.0 mph 62% 0.00 in
19:44 74.2 °F 60.3 °F 30.08 in Calm   1.0 mph 62% 0.00 in
19:49 74.0 °F 60.6 °F 30.08 in Calm     63% 0.00 in
19:54 73.9 °F 60.5 °F 30.08 in Calm     63% 0.00 in
19:59 73.5 °F 60.6 °F 30.08 in Calm     64% 0.00 in
20:04 73.3 °F 60.4 °F 30.08 in Calm     64% 0.00 in
20:09 73.0 °F 60.5 °F 30.08 in Calm     65% 0.00 in
20:14 72.9 °F 60.4 °F 30.08 in Calm     65% 0.00 in
20:19 72.7 °F 60.3 °F 30.08 in Calm     65% 0.00 in
20:24 72.4 °F 60.0 °F 30.09 in Calm     65% 0.00 in
20:29 72.3 °F 60.3 °F 30.09 in Calm     66% 0.00 in
20:34 72.1 °F 60.1 °F 30.08 in Calm     66% 0.00 in
20:39 71.7 °F 60.2 °F 30.09 in Calm     67% 0.00 in
20:44 71.6 °F 60.1 °F 30.09 in Calm     67% 0.00 in
20:49 71.6 °F 60.1 °F 30.09 in Calm     67% 0.00 in
20:54 71.3 °F 60.2 °F 30.09 in Calm     68% 0.00 in
20:59 71.1 °F 60.4 °F 30.09 in Calm     69% 0.00 in
21:04 71.0 °F 60.3 °F 30.09 in Calm     69% 0.00 in
21:09 70.8 °F 60.1 °F 30.09 in Calm     69% 0.00 in
21:14 70.6 °F 60.3 °F 30.09 in Calm     70% 0.00 in
21:19 70.4 °F 60.1 °F 30.09 in Calm     70% 0.00 in
21:24 70.3 °F 60.4 °F 30.09 in Calm     71% 0.00 in
21:29 70.3 °F 60.4 °F 30.09 in Calm     71% 0.00 in
21:34 70.2 °F 60.7 °F 30.09 in Calm     72% 0.00 in
21:39 70.1 °F 61.0 °F 30.09 in Calm     73% 0.00 in
21:44 70.0 °F 60.9 °F 30.09 in Calm     73% 0.00 in
21:49 69.8 °F 61.1 °F 30.09 in Calm     74% 0.00 in
21:54 69.7 °F 61.0 °F 30.09 in Calm     74% 0.00 in
21:59 69.5 °F 61.2 °F 30.09 in Calm     75% 0.00 in
22:04 69.4 °F 61.1 °F 30.09 in Calm     75% 0.00 in
22:09 69.3 °F 61.4 °F 30.09 in Calm     76% 0.00 in
22:14 69.2 °F 61.7 °F 30.09 in Calm     77% 0.00 in
22:19 69.2 °F 61.7 °F 30.09 in Calm     77% 0.00 in
22:24 69.1 °F 61.9 °F 30.09 in Calm     78% 0.00 in
22:29 69.0 °F 62.2 °F 30.09 in Calm     79% 0.00 in
22:34 69.0 °F 62.6 °F 30.09 in Calm     80% 0.00 in
22:39 68.9 °F 62.8 °F 30.09 in Calm     81% 0.00 in
22:44 68.7 °F 63.0 °F 30.09 in Calm     82% 0.00 in
22:49 68.7 °F 63.0 °F 30.09 in Calm     82% 0.00 in
22:54 68.5 °F 62.8 °F 30.09 in Calm     82% 0.00 in
22:59 68.4 °F 63.0 °F 30.09 in Calm     83% 0.00 in
23:04 68.4 °F 63.0 °F 30.09 in Calm     83% 0.00 in
23:09 68.3 °F 63.3 °F 30.09 in Calm     84% 0.00 in
23:19 68.0 °F 62.6 °F 30.09 in Calm     83% 0.00 in
23:24 67.9 °F 62.5 °F 30.09 in Calm     83% 0.00 in
23:29 67.7 °F 62.3 °F 30.09 in Calm     83% 0.00 in
23:34 67.5 °F 61.8 °F 30.09 in Calm     82% 0.00 in
23:39 67.3 °F 61.6 °F 30.09 in Calm     82% 0.00 in
23:44 67.3 °F 61.6 °F 30.09 in Calm     82% 0.00 in
23:49 67.2 °F 61.5 °F 30.09 in Calm     82% 0.00 in
23:54 67.1 °F 61.4 °F 30.09 in Calm     82% 0.00 in
23:59 67.1 °F 61.4 °F 30.09 in Calm     82% 0.00 in
Buffalo, New York, USA
Compliments of Weather Underground - 2.5 mb